CST,Max TemperatureF,Mean TemperatureF,Min TemperatureF,Max Dew PointF,MeanDew PointF,Min DewpointF,Max Humidity, Mean Humidity, Min Humidity, Max Sea Level PressureIn, Mean Sea Level PressureIn, Min Sea Level PressureIn, Max VisibilityMiles, Mean VisibilityMiles, Min VisibilityMiles, Max Wind SpeedMPH, Mean Wind SpeedMPH, Max Gust SpeedMPH,PrecipitationIn, CloudCover, Events, WindDirDegrees
2012-1-1,33,24,14,19,10,5,63,48,32,30.74,30.50,30.22,10,10,10,37,21,46,0.00,2,,307
2012-1-2,30,17,3,7,2,0,76,52,27,30.72,30.57,30.20,10,10,10,20,8,23,0.00,0,,184
2012-1-3,61,39,16,26,18,4,73,48,23,30.19,30.04,29.91,10,10,10,32,13,39,0.00,0,,270
2012-1-4,58,41,24,27,23,21,75,50,24,30.23,30.12,30.01,10,10,10,18,11,23,0.00,0,,261
2012-1-5,66,50,34,26,24,22,64,43,22,30.01,29.84,29.74,10,10,10,17,8,20,0.00,0,,275
2012-1-6,47,36,24,25,20,14,69,50,31,30.11,29.98,29.80,10,10,10,29,13,37,0.00,1,,288
2012-1-7,39,29,19,18,14,12,74,56,37,30.26,30.18,30.06,10,10,10,12,4,14,0.00,0,,242
2012-1-8,43,29,14,23,17,12,92,64,36,30.26,30.20,30.11,10,10,10,12,5,14,0.00,2,,229
2012-1-9,57,42,26,28,23,16,70,53,35,30.11,30.05,29.99,10,10,10,18,10,22,0.00,0,,261
2012-1-10,55,42,29,33,26,23,78,57,35,29.98,29.82,29.67,10,10,10,33,7,44,T,1,Rain,254
2012-1-11,37,24,11,32,16,3,92,77,62,30.25,30.07,29.74,10,5,0,43,27,51,0.10,8,Fog-Rain-Snow,330
2012-1-12,17,10,3,2,-1,-5,76,64,51,30.25,30.19,30.13,10,10,10,30,14,36,T,2,,314
2012-1-13,34,17,0,28,20,0,92,79,66,30.11,29.94,29.80,10,8,0,24,8,31,0.00,6,Fog-Snow,239
2012-1-14,36,28,20,30,23,15,85,72,59,30.14,30.01,29.83,10,8,2,25,11,30,T,3,Snow,263
2012-1-15,43,31,18,28,21,16,84,69,54,29.94,29.74,29.60,10,10,10,28,9,36,0.00,0,,336
2012-1-16,27,18,9,17,6,3,83,75,67,30.29,30.08,29.94,10,4,0,24,16,29,0.00,6,Snow,348
2012-1-17,10,5,0,3,0,-3,88,76,63,30.43,30.28,30.04,10,7,2,20,9,22,T,5,Snow,332
2012-1-18,20,8,-5,10,-2,-11,95,77,59,30.18,29.98,29.78,10,9,2,35,13,41,T,6,Snow,318
2012-1-19,6,-1,-8,-1,-8,-13,83,74,65,30.26,30.14,29.96,10,9,5,18,9,22,0.00,7,Snow,122
2012-1-20,11,5,-2,3,1,-4,95,81,66,30.27,30.03,29.80,10,6,1,17,8,21,0.01,7,Snow,74
2012-1-21,34,17,0,25,13,-2,87,75,63,30.18,29.66,29.33,10,10,8,33,19,39,0.00,2,,135
2012-1-22,36,30,24,32,25,18,92,80,68,29.80,29.53,29.34,10,5,0,32,15,41,0.09,8,Fog-Rain-Snow,325
2012-1-23,27,17,6,18,12,3,92,80,68,30.02,29.92,29.79,10,8,0,23,10,29,0.00,5,Fog,351
2012-1-24,33,20,6,32,20,3,100,86,72,30.24,30.11,29.92,10,5,0,10,4,12,0.05,6,Fog-Rain-Snow,196
2012-1-25,42,27,12,31,20,9,100,82,64,30.19,29.98,29.79,10,6,0,21,8,25,0.00,2,Fog,152
2012-1-26,43,37,31,27,25,23,78,66,54,30.01,29.90,29.75,10,10,10,24,14,30,T,2,Rain,278
2012-1-27,37,31,24,31,24,18,89,68,47,30.22,29.97,29.68,10,10,4,36,19,43,T,3,Snow,298
2012-1-28,40,32,24,17,15,12,74,54,34,30.17,30.13,30.08,10,10,10,31,17,38,0.00,2,,286
2012-1-29,44,32,20,27,19,13,77,68,58,30.21,30.00,29.71,10,10,10,21,9,23,0.00,6,,143
2012-1-30,58,46,34,34,26,23,75,53,30,29.72,29.65,29.56,10,10,10,17,9,22,0.00,0,,244
2012-1-31,53,42,30,32,27,23,82,60,38,30.03,29.87,29.68,10,10,10,23,12,28,0.00,1,,278